sat.trackr.live / text

‹ back to catalog

STARLINK-32268

NORAD 60372 · 2024-138T

PAYLOAD ACTIVE UNKNOWN

§ Identity

Operator
Country
US
Launch date
2024-08-04
Launch site
AFWTR
Launch vehicle
Mass (kg)
RCS (m²)

Purposes: comms

External: N2YO · Heavens-Above · Gunter

§ Orbital elements

Epoch: 2026-09-21T20:06:56.491776Z

Period
93.85 min
Inclination
53.1610°
Eccentricity
0.0001345
Mean motion
15.34386168 rev/d
Perigee alt
461.8 km
Apogee alt
463.7 km
Semi-major
6,840.9 km
B*
2.4184e-5
RAAN
117.4615°
Arg perigee
87.0869°
Mean anomaly
273.0288°
Rev number
12,067

§ Raw data

STARLINK-322681 60372U 24138T   26264.83815384  .00000441  00000+0  24184-4 0  99972 60372  53.1610 117.4615 0001345  87.0869 273.0288 15.34386168120673

JSON: /api/v1/satellites/60372 · /tle

For live sub-satellite position, see the globe view (requires WebGL).

§ Visibility from observer

Set your observer location to see the next 7 days of passes ≥ 10°. The values pass through the URL so the page stays shareable.

No JS? Fill the form by hand. The geolocation button needs JavaScript.